Regional Weather Roundup
Issued by NWS

Home | Current Version | Previous Version | Text Only | Print | Product List | Glossary On
Versions: 1 2 3 4 5 6 7 8 9 10 11 12 13 14 15 16 17 18 19 20 21 22 23 24 25 26 27 28 29 30 31 32 33 34 35 36 37 38 39 40 41 42 43 44 45 46 47 48 49 50
000
ASCA44 KEWX 292020
RWRMX

LATIN AMERICA AND CARIBBEAN REGIONAL WEATHER ROUNDUP
NATIONAL WEATHER SERVICE AUSTIN/SAN ANTONIO TX
200 PM CST THU JAN 29 2015

NOTE: "FAIR" INDICATED FEW OR NO CLOUDS BELOW 12,000 FEET WITH NO
SIGNIFICANT WEATHER AND/OR OBSTRUCTIONS TO VISIBILITY.

BAJA CALIFORNIA

CITY           SKY/WX    TMP DP  RH WIND       PRES   REMARKS
LORETO         CLOUDY    73  63  68 NE12      29.94F
LA PAZ         CLOUDY    75  57  53 NW6       29.96
MEXICALI       CLOUDY    70  46  43 NW6       30.04
S.J. DEL CABO  PTSUNNY   86  46  25 NW12      29.91
TIJUANA        CLOUDY    72  37  28 SE6       30.07

NORTHWESTERN MEXICO

CITY           SKY/WX    TMP DP  RH WIND       PRES   REMARKS
CULIACAN       PTSUNNY   86  63  45 W9        29.86
DURANGO        MOSUNNY   75  34  22 CALM      30.24
GUAYMAS        CLOUDY    75  61  60 N12       29.91
HERMOSILLO     CLOUDY    77  59  53 NW8       30.02
CD. JUAREZ     CLOUDY    59  43  55 NE17      30.24
LOS MOCHIS     CLOUDY    73  61  64 NW14      29.90F
OBREGON        CLOUDY    73  59  60 W12       29.90

NORTHEASTERN MEXICO

CITY           SKY/WX    TMP DP  RH WIND       PRES   REMARKS
CHIHUAHUA      PTSUNNY   68  39  34 CALM      30.25F
MATAMOROS      PTSUNNY   77  63  61 SE12      30.20F
MONCLOVA       MOSUNNY   77  46  33 NE9       30.13S
MONTERREY      MOSUNNY   73  50  43 E13       30.12F
NUEVO LAREDO   MOSUNNY   81  55  41 SE6       30.14F
PIEDRAS NEGRAS MOSUNNY   73  54  49 NE7       30.19F
REYNOSA        MOSUNNY   75  54  46 SE14      30.13F
SALTILLO       MOSUNNY   72  52  49 NW12      30.25F
TORREON        PTSUNNY   75  43  31 N5        30.18F
CD. VICTORIA   MOSUNNY   77  50  38 SE12      30.13F

WESTERN MEXICO

CITY           SKY/WX    TMP DP  RH WIND       PRES   REMARKS
AGUASCALIENTES PTSUNNY   75  23  14 S5        30.24
COLIMA         PTSUNNY   86  55  35 CALM      29.95F
DEL BAJIO      PTSUNNY   77  36  22 SE10      30.28F
GUADALAJARA    PTSUNNY   79  30  17 E6        30.15
MANZANILLO     MOSUNNY   84  75  74 SW12      29.81  HX  92
MAZATLAN       CLOUDY    79  68  69 S10       29.84F
P. VALLARTA    PTSUNNY   81  72  74 SW9       29.85F
URUAPAN        MOSUNNY   75  50  41 S12       30.12F
ZACATECAS      PTSUNNY   73  32  21 NE9       30.28

CENTRAL MEXICO

CITY           SKY/WX    TMP DP  RH WIND       PRES   REMARKS
CUERNAVACA     SUNNY     77  30  18 CALM      30.08F
MEXICO CITY    SUNNY     70  28  21 N12       30.29F
MORELIA        MOSUNNY   79  37  22 N12       30.19
POZA RICA      MOSUNNY   81  61  50 E8        30.14F
PUEBLA         SUNNY     73  21  14 NW14      30.26F
QUERETARO      MOSUNNY   75  30  19 NE16      30.28F
S. LUIS POTOSI PTSUNNY   73  30  20 E12       30.25
TAMPICO        SUNNY     75  55  50 SE12      30.15F
TOLUCA         MOSUNNY   68  21  17 NW10      30.35

SOUTHERN MEXICO

CITY           SKY/WX    TMP DP  RH WIND       PRES   REMARKS
ACAPULCO       MOSUNNY   84  75  74 S8        29.86F HX  92
B. DE HUATULCO MOSUNNY   86  75  70 S7        29.92  HX  95
OAXACA         SUNNY     79  16   9 SE7       30.16F
P. ESCONDIDO   SUNNY     79  72  78 SW14      30.05S
VERACRUZ       MOSUNNY   75  57  53 E8        30.13F
ZIHUATANEJO    MOSUNNY   88  73  62 SW12      29.87  HX  96

YUCATAN PENINSULA

CITY           SKY/WX    TMP DP  RH WIND       PRES   REMARKS
CAMPECHE       MOSUNNY   79  57  47 N12       30.05F
CANCUN         PTSUNNY   75  57  53 NE9       30.13F
CHETUMAL       PTSUNNY   79  63  57 E17       30.06F
CD. DEL CARMEN MOSUNNY   77  61  57 NE10      30.08
COZUMEL        MOSUNNY   72  59  64 E17       30.12F
MERIDA         MOSUNNY   82  55  39 NE9G24    30.10F
MINATITLAN     MOSUNNY   73  66  78 N17       30.07
TAPACHULA      SUNNY     84  70  61 W16       29.87F
TUX. GUTIERREZ MOSUNNY   77  48  36 SE6       30.03F
VILLAHERMOSA   MOSUNNY   79  61  53 NE14      30.09F

CENTRAL AMERICA

CITY           SKY/WX    TMP DP  RH WIND       PRES   REMARKS
BELIZE CITY    MOSUNNY   81  66  61 NE12      30.05F
MANAGUA        PTCLDY    90  59  35 E18       29.80F

CARIBBEAN

CITY           SKY/WX    TMP DP  RH WIND       PRES   REMARKS
ARUBA          MOSUNNY   84  73  70 E21       29.83S HX  91
CURACAO        MOSUNNY   86  70  58 E14       29.86S HX  90
KINGSTON       PTSUNNY   84  68  58 S6        29.92S
NASSAU         MOSUNNY   70  48  46 NE3       30.19F
SAN JUAN       MOSUNNY   82  70  65 NE9       29.97F
SANTO DOMINGO  MOSUNNY   84  70  61 N9        29.92F
ST. KITTS      MOSUNNY   82  70  65 NE10      29.94S
ST. MAARTEN    MOSUNNY   82  68  61 E9        29.97S

$$



USA.gov is the U.S. government's official web portal to all federal, state and local government web resources and services.